When you browse on this site, cookies collect data to enhance your experience and personalize the content and advertising you see.
Visit our Privacy Policy to learn more. By continuing to use the site, you agree to this use of cookies and data.
  • în România
  • Lista ţărilor
  • Pe 7 zile
  • Temperatura apei
  • Hartă satelitară
  • Meteo pe hartă
  • Widget-uri
  • user-avatar
    Intrare

    Meteo pe oră la Exeter

    Astăzi, 20 Iunie, Joi

    Timp Temperatura Precipitaţii Vânt Presiune Umiditate
    00:00 +8°C° 0 mm 4 m/s 751 mmHg 96%
    01:00 +8°C° 0 mm 4 m/s 751 mmHg 96%
    02:00 +8°C° 0 mm 4 m/s 751 mmHg 96%
    03:00 +8°C° 0 mm 4 m/s 751 mmHg 95%
    04:00 +10°C° 0 mm 4 m/s 751 mmHg 94%
    05:00 +10°C° 0 mm 4 m/s 752 mmHg 93%
    06:00 +11°C° 0 mm 4 m/s 752 mmHg 91%
    07:00 +12°C° 0.1 mm 4 m/s 752 mmHg 87%
    08:00 +13°C° 0.1 mm 4 m/s 752 mmHg 83%
    09:00 +14°C° 0.1 mm 5 m/s 752 mmHg 79%
    10:00 +14°C° 0.2 mm 5 m/s 753 mmHg 78%
    11:00 +15°C° 0.2 mm 5 m/s 753 mmHg 78%
    12:00 +15°C° 0.2 mm 5 m/s 753 mmHg 78%
    13:00 +15°C° 0.3 mm 5 m/s 753 mmHg 78%
    14:00 +15°C° 0.3 mm 5 m/s 753 mmHg 78%
    15:00 +15°C° 0.3 mm 5 m/s 754 mmHg 78%
    16:00 +15°C° 0.1 mm 5 m/s 754 mmHg 79%
    17:00 +14°C° 0.1 mm 5 m/s 754 mmHg 79%
    18:00 +14°C° 0.1 mm 5 m/s 754 mmHg 80%
    19:00 +13°C° 0 mm 4 m/s 754 mmHg 84%
    20:00 +11°C° 0 mm 3 m/s 754 mmHg 88%
    21:00 +9°C° 0 mm 2 m/s 755 mmHg 93%
    22:00 +9°C° 0 mm 2 m/s 755 mmHg 92%
    23:00 +8°C° 0 mm 2 m/s 755 mmHg 92%

    Mâine, 21 Iunie, Vineri

    Timp Temperatura Precipitaţii Vânt Presiune Umiditate
    00:00 +8°C° 0 mm 2 m/s 755 mmHg 92%
    01:00 +7°C° 0 mm 2 m/s 755 mmHg 92%
    02:00 +7°C° 0 mm 2 m/s 755 mmHg 92%
    03:00 +7°C° 0 mm 2 m/s 755 mmHg 93%
    04:00 +8°C° 0 mm 2 m/s 756 mmHg 91%
    05:00 +9°C° 0 mm 2 m/s 756 mmHg 90%
    06:00 +10°C° 0 mm 2 m/s 756 mmHg 89%
    07:00 +12°C° 0 mm 2 m/s 757 mmHg 83%
    08:00 +14°C° 0 mm 2 m/s 757 mmHg 78%
    09:00 +15°C° 0 mm 2 m/s 757 mmHg 72%
    10:00 +15°C° 0 mm 2 m/s 758 mmHg 71%
    11:00 +16°C° 0 mm 2 m/s 758 mmHg 70%
    12:00 +16°C° 0 mm 2 m/s 758 mmHg 69%
    13:00 +16°C° 0 mm 2 m/s 758 mmHg 68%
    14:00 +17°C° 0 mm 2 m/s 758 mmHg 68%
    15:00 +17°C° 0 mm 2 m/s 758 mmHg 67%
    16:00 +16°C° 0 mm 3 m/s 758 mmHg 70%
    17:00 +16°C° 0 mm 3 m/s 758 mmHg 72%
    18:00 +14°C° 0 mm 3 m/s 758 mmHg 74%
    19:00 +12°C° 0 mm 3 m/s 758 mmHg 79%
    20:00 +12°C° 0 mm 2 m/s 759 mmHg 83%
    21:00 +9°C° 0 mm 2 m/s 759 mmHg 88%
    22:00 +9°C° 0 mm 1 m/s 759 mmHg 88%
    23:00 +9°C° 0 mm 1 m/s 759 mmHg 87%

    Poimâine, 22 Iunie, Sâmbătă

    Timp Temperatura Precipitaţii Vânt Presiune Umiditate
    00:00 +8°C° 0 mm 1 m/s 758 mmHg 87%
    01:00 +8°C° 0 mm 1 m/s 758 mmHg 87%
    02:00 +8°C° 0 mm 1 m/s 758 mmHg 86%
    03:00 +8°C° 0 mm 1 m/s 758 mmHg 86%
    04:00 +9°C° 0 mm 1 m/s 758 mmHg 84%
    05:00 +10°C° 0 mm 1 m/s 758 mmHg 83%
    06:00 +11°C° 0 mm 1 m/s 758 mmHg 82%
    07:00 +12°C° 0 mm 2 m/s 758 mmHg 78%
    08:00 +14°C° 0 mm 2 m/s 758 mmHg 75%
    09:00 +15°C° 0 mm 2 m/s 758 mmHg 71%
    10:00 +16°C° 0 mm 3 m/s 758 mmHg 71%
    11:00 +16°C° 0 mm 3 m/s 758 mmHg 71%
    12:00 +17°C° 0 mm 4 m/s 758 mmHg 71%
    13:00 +17°C° 0 mm 4 m/s 757 mmHg 72%
    14:00 +17°C° 0 mm 4 m/s 757 mmHg 72%
    15:00 +17°C° 0 mm 4 m/s 757 mmHg 73%
    16:00 +17°C° 0 mm 3 m/s 757 mmHg 74%
    17:00 +16°C° 0 mm 3 m/s 756 mmHg 76%
    18:00 +14°C° 0 mm 3 m/s 756 mmHg 78%
    19:00 +13°C° 0 mm 3 m/s 756 mmHg 81%
    20:00 +13°C° 0 mm 2 m/s 756 mmHg 85%
    21:00 +12°C° 0 mm 2 m/s 756 mmHg 88%
    22:00 +12°C° 0 mm 2 m/s 756 mmHg 89%
    23:00 +12°C° 0 mm 2 m/s 756 mmHg 90%

    23 Iunie, Duminică

    Timp Temperatura Precipitaţii Vânt Presiune Umiditate
    00:00 +12°C° 0 mm 2 m/s 756 mmHg 91%
    01:00 +12°C° 0 mm 2 m/s 755 mmHg 91%
    02:00 +13°C° 0 mm 2 m/s 755 mmHg 92%
    03:00 +13°C° 0 mm 2 m/s 755 mmHg 92%
    04:00 +13°C° 0 mm 2 m/s 755 mmHg 92%
    05:00 +14°C° 0 mm 2 m/s 755 mmHg 93%
    06:00 +14°C° 0 mm 2 m/s 755 mmHg 93%
    07:00 +14°C° 0 mm 3 m/s 755 mmHg 91%
    08:00 +16°C° 0 mm 3 m/s 755 mmHg 88%
    09:00 +17°C° 0 mm 3 m/s 755 mmHg 86%
    10:00 +19°C° 0 mm 4 m/s 755 mmHg 85%
    11:00 +20°C° 0 mm 4 m/s 755 mmHg 83%
    12:00 +21°C° 0 mm 5 m/s 755 mmHg 82%
    13:00 +21°C° 0.1 mm 4 m/s 755 mmHg 82%
    14:00 +20°C° 0.1 mm 4 m/s 754 mmHg 82%
    15:00 +20°C° 0.1 mm 4 m/s 754 mmHg 82%
    16:00 +19°C° 0 mm 3 m/s 754 mmHg 84%
    17:00 +19°C° 0 mm 3 m/s 754 mmHg 86%
    18:00 +18°C° 0 mm 2 m/s 754 mmHg 89%
    19:00 +17°C° 0 mm 2 m/s 754 mmHg 90%
    20:00 +18°C° 0 mm 1 m/s 754 mmHg 91%
    21:00 +16°C° 0 mm 1 m/s 754 mmHg 92%
    22:00 +16°C° 0.8 mm 1 m/s 753 mmHg 94%
    23:00 +16°C° 0.8 mm 1 m/s 753 mmHg 96%

    24 Iunie, Luni

    Timp Temperatura Precipitaţii Vânt Presiune Umiditate
    00:00 +16°C° 0.8 mm 2 m/s 753 mmHg 98%
    01:00 +17°C° 1.3 mm 2 m/s 752 mmHg 98%
    02:00 +17°C° 1.3 mm 2 m/s 752 mmHg 98%
    03:00 +17°C° 1.3 mm 2 m/s 752 mmHg 98%
    04:00 +18°C° 0.2 mm 1 m/s 752 mmHg 98%
    05:00 +18°C° 0.2 mm 1 m/s 752 mmHg 98%
    06:00 +19°C° 0.2 mm 1 m/s 753 mmHg 97%
    07:00 +20°C° 0 mm 1 m/s 753 mmHg 95%
    08:00 +20°C° 0 mm 1 m/s 753 mmHg 93%
    09:00 +21°C° 0 mm 1 m/s 754 mmHg 91%
    10:00 +22°C° 0 mm 1 m/s 754 mmHg 89%
    11:00 +22°C° 0 mm 1 m/s 754 mmHg 86%
    12:00 +23°C° 0 mm 1 m/s 755 mmHg 84%
    13:00 +23°C° 0.3 mm 2 m/s 755 mmHg 86%
    14:00 +21°C° 0.3 mm 2 m/s 755 mmHg 87%
    15:00 +21°C° 0.3 mm 2 m/s 755 mmHg 88%
    16:00 +20°C° 0.4 mm 2 m/s 755 mmHg 90%
    17:00 +20°C° 0.4 mm 1 m/s 755 mmHg 92%
    18:00 +19°C° 0.4 mm 1 m/s 755 mmHg 94%
    19:00 +19°C° 0.7 mm 1 m/s 755 mmHg 94%
    20:00 +19°C° 0.7 mm 1 m/s 756 mmHg 94%
    21:00 +19°C° 0.7 mm 1 m/s 756 mmHg 95%
    22:00 +18°C° 0.6 mm 2 m/s 756 mmHg 95%
    23:00 +18°C° 0.6 mm 2 m/s 755 mmHg 95%

    25 Iunie, Marţi

    Timp Temperatura Precipitaţii Vânt Presiune Umiditate
    00:00 +18°C° 0.6 mm 3 m/s 755 mmHg 95%
    01:00 +17°C° 0.9 mm 3 m/s 755 mmHg 95%
    02:00 +17°C° 0.9 mm 3 m/s 754 mmHg 96%
    03:00 +17°C° 0.9 mm 3 m/s 754 mmHg 96%
    04:00 +17°C° 0.2 mm 3 m/s 754 mmHg 96%
    05:00 +18°C° 0.2 mm 3 m/s 754 mmHg 96%
    06:00 +18°C° 0.2 mm 3 m/s 754 mmHg 96%
    07:00 +18°C° 0 mm 3 m/s 754 mmHg 94%
    08:00 +19°C° 0 mm 3 m/s 754 mmHg 92%
    09:00 +20°C° 0 mm 3 m/s 755 mmHg 91%
    10:00 +20°C° 0 mm 3 m/s 755 mmHg 88%
    11:00 +21°C° 0 mm 2 m/s 755 mmHg 86%
    12:00 +21°C° 0 mm 2 m/s 756 mmHg 84%
    13:00 +23°C° 0 mm 2 m/s 756 mmHg 83%
    14:00 +23°C° 0 mm 2 m/s 756 mmHg 82%
    15:00 +23°C° 0 mm 2 m/s 757 mmHg 80%
    16:00 +23°C° 0 mm 2 m/s 757 mmHg 81%
    17:00 +23°C° 0 mm 2 m/s 757 mmHg 83%
    18:00 +23°C° 0 mm 2 m/s 758 mmHg 84%
    19:00 +22°C° 0 mm 1 m/s 758 mmHg 87%
    20:00 +20°C° 0 mm 1 m/s 759 mmHg 91%
    21:00 +19°C° 0 mm 1 m/s 759 mmHg 95%
    22:00 +18°C° 0 mm 1 m/s 759 mmHg 94%
    23:00 +18°C° 0 mm 1 m/s 759 mmHg 94%
    Arată mai mult